Regional Weather Roundup
Issued by NWS New Orleans/Baton Rouge, LA

Home | Current Version | Previous Version | Text Only | Print | Product List | Glossary On
Versions: 1 2 3 4 5 6 7 8 9 10 11 12 13 14 15 16 17 18 19 20 21 22 23 24 25 26 27 28 29 30 31 32 33 34 35 36 37 38 39 40 41 42 43 44 45 46 47 48 49 50
265
ASUS44 KLIX 171012
RWRLIX
NEW ORLEANS REGIONAL WEATHER ROUNDUP
NATIONAL WEATHER SERVICE NEW ORLEANS LA
500 AM CDT FRI APR 17 2015

NOTE: "FAIR" INDICATES FEW OR NO CLOUDS BELOW 12,000 FEET WITH NO
      SIGNIFICANT WEATHER AND/OR OBSTRUCTIONS TO VISIBILITY.
      SKY/WX - SKY CONDITION AND SIGNIFICANT WEATHER.
      TMP - AIR TEMPERATURE.     DP    - DEWPOINT TEMPERATURE.
      RH  - RELATIVE HUMIDITY.   PRES  - PRESSURE.
      HI  - HEAT INDEX.          WCI   - WIND CHILL INDEX.

*  THESE STATIONS ARE NOT NWS OR FAA STATIONS AND ARE NOT UNDER
   NWS QUALITY CONTROL.

LAZ038-040-048-061>063-065>067-069-171100-
SOUTHEAST LOUISIANA

CITY           SKY/WX    TMP DP  RH WIND       PRES   REMARKS
N.O. AUDUBON     N/A     69  67  92 MISG        N/A
N.O. INTL ARPT PTCLDY    68  65  90 NW6       29.99S
N.O. LAKEFRONT MOCLDY    72  66  81 E5        29.99S
SLIDELL        CLOUDY    69  69 100 N5        29.99S
BATON ROUGE    MOCLDY    66  65  96 NE5       29.98F
BOOTHVILLE     MOCLDY    69  68  96 E9        29.98F
BELLE CHASSE   CLOUDY    68  66  93 N5        29.98R
BOGALUSA*        N/A     69  66  90 CALM      30.03S
GALLIANO*      DRIZZLE   68  67  97 CALM      29.97F
NEW ROADS*     PTSUNNY   66  65  98 SE8       29.97F
GONZALES*      CLOUDY    68  68 100 NW6       30.00F
HAMMOND*       CLOUDY    68  66  94 CALM      30.02S
HOUMA*         CLOUDY    67  67  98 NW6       29.99S
PORT FOURCHON* CLOUDY    72  70  94 E9        30.01R

$$

MSZ070-080>082-171100-
SOUTHERN MISSISSIPPI

CITY           SKY/WX    TMP DP  RH WIND       PRES   REMARKS
MCCOMB         CLOUDY    66  66 100 SE5       29.99F
GULFPORT       CLOUDY    72  69  90 SE13      29.99R
BILOXI         CLOUDY    72  72 100 SE14      29.98R
PASCAGOULA     CLOUDY    70  67  90 SE12      29.99F

$$

COASTAL OBSERVATIONS
LAKE AND NEARSHORE STATIONS

STATION/POSITION TIME  TEMP    WIND        PRES    WAVE
                       AIR SEA DIR/SP/G            HT/PER
                 (UTC) (F)     (DEG/KT/KT) (MB)    (FT/S)
PASCAGOULA       0900   71     130/ 18/ 26 1015.1
WAVELAND YACHT   0900   73 73  150/ 13/ 19 1015.3
GRAND ISLE       0900   71 75   80/ 11/ 17 1014.6
SOUTHWEST PASS   0900   69 63  100/  8/  8 1015.6
NEW CANAL        0900   68        CALM     1015.8
SHELL BEACH      0900   71 75  120/ 16/ 18 1014.2

OFFSHORE STATIONS

STATION/POSITION TIME  TEMP    WIND        PRES    WAVE
                       AIR SEA DIR/SP/G            HT/PER
                 (UTC) (F)     (DEG/KT/KT) (MB)    (FT/S)
64 S DAUPHIN ISL 0950   72 75   70/ 19/ 23 1015.8    4/ 5

$$




USA.gov is the U.S. government's official web portal to all federal, state and local government web resources and services.